Regional Weather Roundup
Issued by NWS

Home | Current Version | Previous Version | Graphics & Text | Print | Product List | Glossary Off
Versions: 1 2 3 4 5 6 7 8 9 10 11 12 13 14 15 16 17 18 19 20 21 22 23 24 25 26 27 28 29 30 31 32 33 34 35 36 37 38 39 40 41 42 43 44 45 46 47 48 49 50

000
ASUS43 KDMX 190107
RWRIA

WEATHER ROUNDUP FOR IOWA
NATIONAL WEATHER SERVICE DES MOINES IA
800 PM CDT SAT APR 18 2015

NOTE: "FAIR" INDICATES FEW OR NO CLOUDS BELOW 12,000 FEET WITH NO
SIGNIFICANT WEATHER AND/OR OBSTRUCTIONS TO VISIBILITY.

* - THESE STATIONS ARE NOT NWS STATIONS...THUS NOT UNDER NWS
QUALITY CONTROL.  THEY ALSO DO NOT REPORT WEATHER SUCH
AS PRECIPITATION OR FOG.

IAZ001>003-012>014-020>022-031>034-043>046-190200-
   NORTHWEST IOWA

CITY           SKY/WX    TMP DP  RH WIND       PRES   REMARKS
CARROLL *      CLOUDY    57  57 100 SE8       29.82F
CHEROKEE *     CLOUDY    57  57 100 SE3       29.80F
DENISON *      CLOUDY    57  57 100 SE8       29.79F
LE MARS *      CLOUDY    59  57  94 S5        29.82R
ORANGE CITY *  CLEAR    N/A N/A N/A SE3       29.80F
SHELDON *      MOCLDY    57  57 100 S5        29.80F
SIOUX CITY     CLOUDY    61  56  83 SE9       29.80F
SPENCER        CLOUDY    58  56  93 E6        29.82F
STORM LAKE *   PTCLDY    57  55  94 SE5       29.81F
$$

IAZ055>058-069>071-079>083-090>094-190200-
   SOUTHWEST IOWA

CITY           SKY/WX    TMP DP  RH WIND       PRES   REMARKS
ATLANTIC *     PTCLDY    59  59 100 E3        29.83S
AUDUBON *      MOCLDY    57  54  88 E5        29.83F
CLARINDA *     MOCLDY    61  59  94 S3        29.85R
COUNCIL BLFS * CLOUDY    59  59 100 SE9       29.84S
CRESTON *      MOCLDY    59  59 100 E5        29.84F
HARLAN  *      CLOUDY    59  59 100 E9        29.84S
LAMONI         CLOUDY    61  59  93 CALM      29.84F
RED OAK *      CLOUDY    61  59  94 SE3       29.83F
SHENANDOAH *   CLEAR     59  57  94 SE7       29.84S
$$

IAZ047>049-059>061-072>074-084-190200-
   CENTRAL IOWA

CITY           SKY/WX    TMP DP  RH WIND       PRES   REMARKS
AMES           RAIN      60  58  92 SE5       29.87F FOG
ANKENY *       LGT RAIN  61  61 100 NE6       29.84F
CHARITON *     PTCLDY    59  59 100 CALM      29.84F FOG
DES MOINES     LGT RAIN  62  60  93 NE6       29.83F
GRINNELL*      CLOUDY    59  55  88 SW5       29.87F
KNOXVILLE *    LGT RAIN  59  57  94 NE5       29.82F
MARSHALLTOWN   RAIN      59  56  89 SW7       29.88S
PELLA *        LGT RAIN  59  59 100 CALM      29.86F
PERRY *        MOCLDY    59  59 100 E6        29.85S
$$

IAZ004>006-015-016-023>025-035-036-190200-
   NORTH CENTRAL IOWA

CITY           SKY/WX    TMP DP  RH WIND       PRES   REMARKS
ALGONA *       CLOUDY    57  57 100 E10G16    29.86S
CLARION *      LGT RAIN  59  59 100 NE8       29.86F
ESTHERVILLE    CLOUDY    55  54  96 E9        29.83F FOG
FORT DODGE *   CLOUDY    57  54  88 E6        29.86S
MASON CITY     LGT RAIN  57  32  38 E8        29.91F
FOREST CITY *  RAIN      55  55 100 E9        29.89F
IOWA FALLS *   LGT RAIN  59  57  94 CALM      29.90R
$$

IAZ007>011-017>019-026>030-037>042-050>054-066-190200-
   NORTHEAST IOWA

CITY           SKY/WX    TMP DP  RH WIND       PRES   REMARKS
CEDAR RAPIDS   TSTM      63  52  67 E13       29.87S
CHARLES CITY * LGT RAIN  59  59 100 N8        29.92F
CLINTON *      MOCLDY    68  43  40 E18       29.93S
DECORAH *      CLEAR     64  39  39 E16       29.91S
DUBUQUE        CLOUDY    66  36  32 E15       29.93S
MONTICELLO *   CLEAR     64  46  52 E15       29.89F
OELWEIN *      MOCLDY    66  41  39 E17G24    29.88F
WATERLOO       CLOUDY    64  52  64 NE8       29.86S
$$

IAZ064-065-067-068-078-190200-
   EAST CENTRAL IOWA

CITY           SKY/WX    TMP DP  RH WIND       PRES   REMARKS
DAVENPORT      PTCLDY    67  50  54 E12       29.90S
IOWA CITY      TSTM      65  59  81 E8        29.87S
MT. PLEASANT * MOCLDY    64  55  72 W8        29.88R
MUSCATINE *    CLOUDY    72  55  56 E12G18    29.86S
QUAD CITIES    MOCLDY    70  50  49 E14       29.88S
$$

IAZ062-063-075>077-085>089-095>099-190200-
   SOUTHEAST IOWA

CITY           SKY/WX    TMP DP  RH WIND       PRES   REMARKS
BURLINGTON     PTCLDY    72  52  49 S7        29.86S
FAIRFIELD *    CLOUDY    61  55  82 SW3       29.88S
FORT MADISON * MOCLDY    68  55  64 W5        29.89R
KEOKUK *       CLOUDY    64  61  88 E14       29.89R
OSKALOOSA *    CLOUDY    59  55  88 SE6       29.89R
CENTERVILLE *  CLEAR     57  57 100 E5        29.88S
OTTUMWA        CLOUDY    59  58  96 SE5       29.87R
WASHINGTON *   CLOUDY    64  59  82 W15       29.87R
$$

ABBREVIATIONS USED IN REMARKS
   TC - TEMPERATURES IN CELSIUS
  WCI - WIND CHILL INDEX
   HX - HEAT INDEX
  VSB - VISIBILITY
$$




USA.gov is the U.S. government's official web portal to all federal, state and local government web resources and services.